星链-37746(STARLINK-37746)

导读

STARLINK-37746(NORAD编号:69230)是美国太空探索技术公司(SpaceX)星链(Starlink)低轨互联网星座的组网卫星,属于星链项目批量生产的第二代工作卫星,用于构建全球覆盖的太空宽带通信网络,为地面用户提供高速互联网接入服务。作为近地轨道卫星,它遵循星链星座标准化设计,依托猎鹰9号火箭完成发射部署,目前稳定运行在预定轨道,持续为星链全球互联网络提供通信支持,服务于民用及商业互联网场景。

Basic Information
目录编号:
69230
目录名称:
STARLINK-37746
国际标识:
2026-115V
轨道中心:
EARTH
卫星名称:
星链-37746
卫星全名:
星链-37746(STARLINK-37746)
卫星状态:
在轨 (已飞行110 天)
发射日期:
2026-05-26 UTC
国别 :
美国 (US)
星等 :
--
This satellite is enrolled in the Space Conjunction Data Service (SCDS) and the current flight risk assessment level is: No High Risk
Orbit Information
数据来源 国际轨道数据
星历时间: 2026-09-13T07:53:24+0800
12小时前
查看轨道信息
半长轴: 6843.68km
偏心率: 0.0003041
轨道倾角: 97.279°
近地点辐角 95.445°
升交点赤经 272.251°
平近点角 264.714°
近地点: 463.461km
远地点: 467.625km
周期: 93.906分钟
每日圈数: 15.334452
Detailed Information
固有亮度:
5
最大亮度:
2.5
卫星平台:
Starlink V1.0
覆盖范围:
全球
运营商:
太空探索技术公司
运营商所在国:
美国
制造商(研发单位):
太空探索技术公司
制造商所在国:
美国
使用方式:
暂无
Satellite Introduction
Starlink 计划是 SpaceX 推出的全球卫星互联网项目,通过发射低轨道卫星,为全球尤其是偏远地区提供高速、低延迟的互联网服务。自 2019 年起,Starlink 已部署数千颗卫星,旨在缩小全球数字鸿沟,推动互联网普及。该项目还为军事、航空等行业提供通信支持,带来广泛经济效益。
2D Orbit Map
3D Orbit Map
Orbit Altitude Analysis Chart
Orbit Inclination Analysis Chart
Orbit Comprehensive Analysis Chart
View Comprehensive Chart
Conjunction Data List
Event ID Objects TCA Miss Dist (km) Collision Risk Probability Collision Risk Index (CRI) Action
CDM_260915-191004-353406-923022
2026-09-15T
19:10:39+0000
1.328 km
极远距离
1.027039E-5 中风险 0.55
CDM_260914-165005-304606-923021
2026-09-14T
16:50:49+0000
2.486 km
极远距离
1.781155E-6 低风险 0.4
CDM_260916-005604-840106-923021
2026-09-16T
00:56:40+0000
2.349 km
极远距离
1.777867E-6 低风险 0.4
CDM_260915-214206-029506-923021
2026-09-15T
21:42:08+0000
2.673 km
极远距离
9.83287E-7 极低风险 0.35
Miss Distance Evolution Trend with All Objects
Collision Probability Evolution Trend with All Objects